Find Jilin-1 Kuanfu-1

NORAD ID: 45016 Int'l Des: 2020-003 Owner: CGSTL Country: CN Constellation: jilin-1 operational
LEOCIRCULARRETROGRADESSO

Live Position

Loading 3D Globe...

About Jilin-1 Kuanfu-1

Description loading...

Upcoming Passes

Passes for default location (London). Set your location on the main map for personalized predictions.

Altitude History

Loading altitude history...

Two-Line Element Set

1 45016U 20003A 26106.81183916 .00002135 00000-0 13380-3 0 9992
2 45016 97.5052 181.9749 0010746 146.4706 213.7206 15.10367828346062
Epoch: Apr 16, 2026 • Age: 5 hours

Current Status

Altitude 545.0 km
Velocity 7.60 km/s
Sub-Earth Point 66.14°N, 48.48°W
Launch Date Jan 15, 2020
Age 6.2 years
Type earth observation

Technical Details

Classification Payload
Mass 1250.00 kg
Dry Mass 1250.00 kg
Total Mass 1250.00 kg
Length 2.00 m
Diameter 1.00 m
Span 2.00 m
Shape Box
Manufacturer HARB/CIOMP
Bus Type JL-1
Phase Status In Orbit
Owner/State CGSTL/CN

Most Searched